Location: *
(58.7167°N, 26.1833°E)
Time: 18:00:02
(UTC+00:00)

CZ-4B R/B - Pass Details

Date: 25 August 2019
Orbit: 702 x 803 km, 98.8° (Epoch: 22 September)

Event Time Altitude Azimuth Distance (km) Brightness Sun altitude
Rises 23:17:14 0° 19° (NNE) 3,108 8.3 -19.6°
Reaches altitude 10° 23:19:32 10° 23° (NNE) 2,186 7.1 -19.6°
Maximum altitude 23:24:15 59° 103° (ESE) 822 3.6 -19.4°
Enters shadow 23:26:03 35° 166° (SSE) 1,132 3.9 -19.3°
